Weather History for Leuchars, United Kingdom

Change the Weather History Date:

Thursday, October 4, 2012

  Actual Average Record
Temperature  
Mean Temperature 46 °F -  
Max Temperature 56 °F 52 °F - ()
Min Temperature 36 °F 41 °F - ()
Degree Days  
Heating Degree Days 19    
Moisture  
Dew Point 40 °F    
Average Humidity 81    
Maximum Humidity 93    
Minimum Humidity 53    
Precipitation  
Precipitation 0.01 in - - ()
Sea Level Pressure  
Sea Level Pressure 29.57 in    
Wind  
Wind Speed 7 mph ()    
Max Wind Speed 14 mph    
Max Gust Speed -    
Visibility 7.5 miles    
Events      
T = Trace of Precipitation, MM = Missing Value Source: Averaged Metar Reports

Daily Weather History Graph

Daily Weather History Graph

Search for Another Location

Airport:

Trip Planner

Search our weather history database for the weather conditions in past years. The results will help you decide how hot, cold, wet, or windy it might be!

Date:

Astronomy

Oct. 04, 2012 Rise Set
Actual Time 7:21 AM BST 6:37 PM BST
Civil Twilight 6:43 AM BST 7:14 PM BST
Nautical Twilight 6:00 AM BST 7:58 PM BST
Astronomical Twilight 5:15 AM BST 8:43 PM BST
Moon 8:09 PM BST (10/4) 12:17 PM BST (10/4)
Length of Visible Light 12h 31m
Length of Day
11h 16m
Waning Gibbous, 83% of the Moon is Illuminated
Oct 4
Waning Gibbous
Oct 8
Last Quarter
Oct 15
New
Oct 22
First Quarter
Oct 29
Full

Hourly Weather History & Observations

Time (BST) Temp. Windchill Dew Point Humidity Pressure Visibility Wind Dir Wind Speed Gust Speed Precip Events Conditions
12:50 AM 41 °F - 38 °F 86% 29.51 in 25 mi West 9.2 mph - -   Scattered Clouds
12:50 AM 41.0 °F 35.2 °F 39.2 °F 93% 29.50 in - West 9.2 mph - N/A   Clear
1:50 AM 41.0 °F 35.8 °F 39.2 °F 93% 29.50 in - West 8.1 mph - N/A   Clear
2:50 AM 41.0 °F 35.2 °F 39.2 °F 93% 29.50 in - West 9.2 mph - N/A   Clear
3:50 AM 41 °F - 38 °F 83%  in 31 mi West 10.4 mph - -   Scattered Clouds
3:50 AM 41.0 °F 34.7 °F 37.4 °F 87% 29.53 in - West 10.4 mph - N/A   Clear
4:50 AM 41.0 °F 36.4 °F 37.4 °F 87% 29.53 in - West 6.9 mph - N/A   Clear
5:50 AM 39.2 °F 34.2 °F 37.4 °F 93% 29.53 in - West 6.9 mph - N/A   Clear
6:50 AM 37 °F - 34 °F 86% 29.57 in 31 mi West 8.1 mph - -   Scattered Clouds
6:50 AM 37.4 °F 31.4 °F 33.8 °F 87% 29.56 in 6.2 mi West 8.1 mph - N/A   Partly Cloudy
7:50 AM 39.2 °F 35.0 °F 37.4 °F 93% 29.56 in 6.2 mi West 5.8 mph - N/A   Partly Cloudy
8:50 AM 42.8 °F 40.1 °F 39.2 °F 87% 29.56 in 6.2 mi West 4.6 mph - N/A   Partly Cloudy
9:50 AM 46 °F - 42 °F 79% 29.60 in 44 mi West 8.1 mph - -   Scattered Clouds
9:50 AM 46.4 °F 42.4 °F 41.0 °F 81% 29.59 in 6.2 mi West 8.1 mph - N/A   Partly Cloudy
10:50 AM 50.0 °F - 42.8 °F 76% 29.59 in 6.2 mi SW 8.1 mph - N/A   Partly Cloudy
11:50 AM 51.8 °F - 41.0 °F 67% 29.59 in 6.2 mi West 9.2 mph - N/A   Partly Cloudy
12:50 PM 51 °F - 40 °F 57% 29.63 in 37 mi West 9.2 mph - -   Mostly Cloudy
12:50 PM 51.8 °F - 41.0 °F 67% 29.62 in 6.2 mi West 9.2 mph - N/A   Mostly Cloudy
1:50 PM 53.6 °F - 42.8 °F 67% 29.62 in 6.2 mi West 10.4 mph - N/A   Mostly Cloudy
2:50 PM 55.4 °F - 42.8 °F 63% 29.59 in 6.2 mi WSW 10.4 mph - N/A   Mostly Cloudy
3:50 PM 54 °F - 42 °F 53% 29.60 in 19 mi West 13.8 mph - -   Mostly Cloudy
3:50 PM 53.6 °F - 41.0 °F 62% 29.59 in 6.2 mi West 13.8 mph - N/A   Mostly Cloudy
4:50 PM 53.6 °F - 42.8 °F 67% 29.59 in 6.2 mi WSW 12.7 mph - N/A   Mostly Cloudy
5:50 PM 50.0 °F - 42.8 °F 76% 29.59 in 6.2 mi WSW 6.9 mph - N/A   Mostly Cloudy
6:50 PM 48 °F - 44 °F 81% 29.61 in 28 mi SW 4.6 mph - -   Partly Cloudy
6:50 PM 48.2 °F - 44.6 °F 87% 29.59 in 6.2 mi SW 4.6 mph - N/A   Mostly Cloudy
7:50 PM 48.2 °F - 44.6 °F 87% 29.59 in 6.2 mi South 4.6 mph - N/A   Mostly Cloudy
8:50 PM 44.6 °F 43.1 °F 42.8 °F 93% 29.59 in 6.2 mi SSW 3.5 mph - N/A   Mostly Cloudy
9:50 PM 46 °F - 42 °F 80% 29.58 in 19 mi SW 6.9 mph - -   Partly Cloudy
9:50 PM 46.4 °F 42.9 °F 41.0 °F 81% 29.56 in 6.2 mi SW 6.9 mph - N/A   Mostly Cloudy
10:50 PM 44.6 °F 43.1 °F 42.8 °F 93% 29.53 in 6.2 mi WSW 3.5 mph - N/A   Mostly Cloudy
11:50 PM 42.8 °F - 41.0 °F 93% 29.53 in 6.2 mi South 1.2 mph - N/A   Mostly Cloudy